Tracking 28052 objects as of 22-Sep-2023
HD Live streaming from Space Station
objects crossing your sky now

OBJECT H

Track OBJECT H now!
10-day predictions


NORAD ID: 53451
Int'l Code: 2022-098H
Perigee: 522.8 km
Apogee: 529.6 km
Inclination: 97.5 °
Period: 95.0 minutes
Semi major axis: 6897 km
RCS: Unknown
Launch date: August 10, 2022
Source: People's Republic of China (PRC)
Launch site: Taiyaun Space Center, China (TSC)
Your satellite tracking list
Your tracking list is empty




NASA's NSSDC Master Catalog

Two Line Element Set (TLE):
1 53451U 22098H   23265.07933749  .00012310  00000-0  65039-3 0  9992
2 53451  97.5354   0.8759 0004972 331.3016  28.7942 15.15632309 61612
Source of the keplerian elements: AFSPC